KO4ZGL-13 Weather Reports


time (UTC)temp
F
wind
direction
speed
knots
gust
knots
rain 1hr
in
rain 24hr
in
rain mn
in
humidity
%
barometer
mb
20260906105647 70 315 0.0 0.0 0.00 0.00 0.00 99 1011.7
20260906105144 70 315 0.0 0.0 0.00 0.00 0.00 99 1011.4
20260906104643 70 314 0.0 0.0 0.00 0.00 0.00 99 1011.5
20260906104143 70 315 0.0 0.0 0.00 0.00 0.00 99 1011.4
20260906103641 70 315 0.0 0.0 0.00 0.00 0.00 99 1011.4
20260906103136 70 316 0.0 0.0 0.00 0.00 0.00 99 1011.4
20260906102631 70 317 0.0 0.0 0.00 0.00 0.00 99 1011.3
20260906102125 70 316 0.0 0.0 0.00 0.00 0.00 99 1011.4
20260906101620 70 317 0.0 0.0 0.00 0.00 0.00 99 1011.0
20260906101114 70 316 0.0 0.0 0.00 0.00 0.00 99 1011.3
20260906100610 70 315 0.0 0.0 0.00 0.00 0.00 99 1010.8
20260906100110 70 316 0.0 0.0 0.00 0.00 0.00 99 1010.9
20260906095610 70 314 0.0 0.0 0.00 0.00 0.00 99 1011.0
20260906095105 70 315 0.0 0.0 0.00 0.00 0.00 99 1010.8
20260906094604 71 315 0.0 0.0 0.00 0.00 0.00 99 1010.9
20260906094101 71 314 0.0 0.0 0.00 0.00 0.00 99 1010.8
20260906093556 70 311 0.0 0.0 0.00 0.00 0.00 99 1010.8
20260906093051 71 315 0.0 0.0 0.00 0.00 0.00 99 1010.5
20260906092546 70 314 0.0 0.0 0.00 0.00 0.00 99 1010.6
20260906092041 71 310 0.0 0.0 0.00 0.00 0.00 99 1010.5
20260906091537 71 316 0.0 0.0 0.00 0.00 0.00 99 1010.5
20260906091034 71 313 0.0 0.0 0.00 0.00 0.00 99 1010.6
20260906090533 71 312 0.0 0.0 0.00 0.00 0.00 99 1010.5
20260906090028 71 316 0.0 0.0 0.00 0.00 0.00 99 1010.5
20260906085527 71 316 0.0 0.0 0.00 0.00 0.00 99 1010.6
20260906085027 71 317 0.0 0.0 0.00 0.00 0.00 99 1010.6
20260906084522 71 318 0.0 0.0 0.00 0.00 0.00 99 1010.8
20260906084020 71 315 0.0 0.0 0.00 0.00 0.00 99 1010.5
20260906083517 71 318 0.0 0.0 0.00 0.00 0.00 99 1010.6
20260906083016 71 315 0.0 0.0 0.00 0.00 0.00 99 1010.7
20260906082511 71 317 0.0 0.0 0.00 0.00 0.00 99 1010.6
20260906082007 71 318 0.0 0.0 0.00 0.00 0.00 99 1010.7
20260906081503 71 316 0.0 0.0 0.00 0.00 0.00 99 1010.8
20260906080958 71 318 0.0 0.0 0.00 0.00 0.00 99 1010.9
20260906080455 71 318 0.0 0.0 0.00 0.00 0.00 99 1010.5
20260906075955 71 314 0.0 0.0 0.00 0.00 0.00 99 1010.6
20260906075449 71 318 0.0 0.0 0.00 0.00 0.00 99 1010.7
20260906074945 71 313 0.0 0.0 0.00 0.00 0.00 99 1011.0
20260906074439 71 316 0.0 0.0 0.00 0.00 0.00 99 1011.2
20260906073937 71 314 0.0 0.0 0.00 0.00 0.00 99 1011.1
20260906073433 71 314 0.0 0.0 0.00 0.00 0.00 99 1011.1
20260906072929 71 316 0.0 0.0 0.00 0.00 0.00 99 1011.1
20260906072424 71 316 0.0 0.0 0.00 0.00 0.00 99 1011.3
20260906071920 71 315 0.0 0.0 0.00 0.00 0.00 99 1011.3
20260906071416 71 315 0.0 0.0 0.00 0.00 0.00 99 1011.3
20260906070912 71 315 0.0 0.0 0.00 0.00 0.00 99 1011.4
20260906070408 71 315 0.0 0.0 0.00 0.00 0.00 99 1011.5
20260906065903 71 315 0.0 0.0 0.00 0.00 0.00 99 1011.5
20260906065356 71 319 0.0 0.0 0.00 0.00 0.00 99 1011.3
20260906064853 71 320 0.0 0.0 0.00 0.00 0.00 99 1011.3
20260906064348 71 317 0.0 0.0 0.00 0.00 0.00 99 1011.3
20260906063843 71 330 0.0 0.0 0.00 0.00 0.00 99 1011.6
20260906063338 71 316 0.0 0.0 0.00 0.00 0.00 99 1011.8
20260906062833 72 318 0.0 0.0 0.00 0.00 0.00 99 1011.5
20260906062332 71 320 0.0 0.0 0.00 0.00 0.00 99 1011.5
20260906061828 71 316 0.0 0.0 0.00 0.00 0.00 99 1011.5
20260906061324 71 317 0.0 0.0 0.00 0.00 0.00 99 1011.5
20260906060819 72 319 0.0 0.0 0.00 0.00 0.00 99 1011.5
20260906060317 72 318 0.0 0.0 0.00 0.00 0.00 99 1011.2
20260906055812 72 319 0.0 0.0 0.00 0.00 0.00 99 1011.2
20260906055308 72 318 0.0 0.0 0.00 0.00 0.00 99 1011.5
20260906054803 71 316 0.0 0.0 0.00 0.00 0.00 99 1011.3
20260906054258 72 315 0.0 0.0 0.00 0.00 0.00 99 1011.1
20260906053754 72 317 0.0 0.0 0.00 0.00 0.00 99 1011.5
20260906053250 72 322 0.0 0.0 0.00 0.00 0.00 99 1011.5
20260906052745 72 322 0.0 0.0 0.00 0.00 0.00 99 1011.3
20260906052241 72 314 0.0 0.9 0.00 0.00 0.00 99 1011.4
20260906051737 72 317 0.0 0.0 0.00 0.00 0.00 99 1011.6
20260906051237 72 317 0.0 0.0 0.00 0.00 0.00 99 1011.4
20260906050727 72 317 0.0 0.0 0.00 0.00 0.00 99 1011.8
20260906050222 72 316 0.0 0.0 0.00 0.00 0.00 99 1011.8
20260906045721 72 318 0.0 0.0 0.00 0.00 0.00 99 1011.7
20260906045216 72 321 0.0 0.0 0.00 0.00 0.00 99 1012.0
20260906044711 72 315 0.0 0.0 0.00 0.00 0.00 99 1011.9
20260906044207 72 317 0.0 0.0 0.00 0.00 0.00 99 1011.9
20260906043703 72 316 0.0 0.0 0.00 0.00 0.00 99 1012.1
20260906043158 72 318 0.0 0.9 0.00 0.00 0.00 99 1012.0
20260906042657 72 320 0.0 0.0 0.00 0.00 0.00 99 1012.2
20260906042151 72 318 0.0 0.0 0.00 0.00 0.00 99 1012.1
20260906041647 72 315 0.0 0.0 0.00 0.00 0.00 99 1012.4
20260906041142 72 317 0.0 0.0 0.00 0.00 0.00 99 1012.2
20260906040637 72 319 0.0 0.0 0.00 0.00 0.00 99 1012.1
20260906040133 72 318 0.0 0.0 0.00 0.00 0.00 99 1012.1
20260906035628 72 317 0.0 0.0 0.00 0.02 0.02 99 1012.3
20260906035123 72 316 0.0 0.0 0.00 0.02 0.02 99 1011.9
20260906034618 72 322 0.0 0.0 0.00 0.02 0.02 99 1012.1
20260906034113 72 321 0.0 0.0 0.00 0.02 0.02 99 1012.0
20260906033608 72 319 0.0 0.0 0.00 0.02 0.02 98 1012.0
20260906033102 72 317 0.0 0.0 0.00 0.02 0.02 98 1012.1
20260906032559 72 318 0.0 0.0 0.00 0.02 0.02 98 1012.4
20260906032054 72 319 0.0 0.0 0.00 0.02 0.02 98 1012.4
20260906031549 72 321 0.0 0.0 0.00 0.02 0.02 98 1012.3
20260906031045 72 315 0.0 0.0 0.00 0.02 0.02 98 1012.5
20260906030544 73 318 0.0 0.0 0.00 0.02 0.02 98 1012.7
20260906030043 73 318 0.0 0.0 0.00 0.02 0.02 98 1012.6
20260906025538 73 324 0.0 0.0 0.00 0.02 0.02 98 1012.7
20260906025036 73 316 0.0 0.0 0.00 0.02 0.02 98 1012.4
20260906024531 73 322 0.0 0.9 0.00 0.02 0.02 98 1012.5
20260906024026 73 318 0.0 0.0 0.00 0.02 0.02 98 1012.2
20260906023522 73 324 0.0 0.0 0.00 0.02 0.02 98 1012.1
20260906023017 73 325 0.0 0.0 0.00 0.02 0.02 98 1011.7
20260906022512 73 316 0.0 0.0 0.00 0.02 0.02 98 1011.6
20260906022007 73 310 0.9 0.9 0.00 0.02 0.02 98 1011.5
20260906021503 73 316 0.0 0.0 0.00 0.02 0.02 98 1011.8
20260906020957 74 315 0.0 0.0 0.00 0.02 0.02 98 1011.5
20260906020451 73 319 0.0 0.0 0.00 0.02 0.02 97 1011.4
20260906015950 74 316 0.0 0.0 0.00 0.02 0.02 97 1011.1
20260906015449 73 319 0.0 0.0 0.00 0.02 0.02 97 1011.1
20260906014950 73 317 0.0 0.0 0.00 0.02 0.02 97 1011.3
20260906014450 73 317 0.0 0.0 0.00 0.02 0.02 97 1011.1
20260906013945 74 312 0.0 0.9 0.00 0.02 0.02 96 1011.1
20260906013440 74 337 0.9 0.9 0.00 0.02 0.02 96 1010.7
20260906012936 74 22 2.6 2.6 0.00 0.02 0.02 96 1009.5
20260906012431 74 312 0.9 0.9 0.05 0.02 0.02 95 1010.0
20260906011930 75 328 0.0 0.9 0.05 0.02 0.02 94 1010.5
20260906011426 75 330 0.9 0.9 0.07 0.01 0.01 93 1010.0
20260906010921 76 299 0.9 0.9 0.07 0.01 0.01 91 1009.2
20260906010416 77 315 0.0 0.0 0.00 0.00 0.00 88 1009.9
20260906005912 78 348 0.9 0.9 0.00 0.00 0.00 85 1010.1
20260906005412 79 342 1.7 2.6 0.00 0.00 0.00 83 1010.5
20260906004910 80 319 0.0 0.0 0.00 0.00 0.00 80 1010.8
20260906004405 80 316 0.0 0.0 0.00 0.00 0.00 78 1010.7
20260906003900 80 308 0.0 0.0 0.00 0.00 0.00 77 1011.4
20260906003355 80 311 0.9 0.9 0.00 0.00 0.00 77 1011.3
20260906002851 80 317 0.0 0.0 0.00 0.00 0.00 75 1011.5
20260906002350 81 317 0.0 0.0 0.00 0.00 0.00 75 1011.5
20260906001846 81 315 0.0 0.0 0.00 0.00 0.00 75 1011.5
20260906001341 81 359 0.9 1.7 0.00 0.00 0.00 77 1011.5
20260906000836 81 337 0.9 0.9 0.00 0.00 0.00 77 1011.6
20260906000333 81 328 0.0 0.9 0.00 0.00 0.00 78 1011.7
20260905235826 82 319 0.0 0.0 0.00 0.00 0.00 79 1011.8
20260905235326 82 323 0.9 0.9 0.00 0.00 0.00 78 1011.6
20260905234821 82 317 0.9 0.9 0.00 0.00 0.00 77 1011.7
20260905234316 83 322 0.0 0.9 0.00 0.00 0.00 78 1012.2
20260905233811 83 297 0.0 0.9 0.00 0.00 0.00 79 1012.1
20260905233306 84 316 0.9 0.9 0.00 0.00 0.00 79 1011.6
20260905232805 84 306 0.9 1.7 0.00 0.00 0.00 80 1011.8
20260905232305 84 320 1.7 1.7 0.00 0.00 0.00 82 1011.9
20260905231757 86 320 0.0 0.0 0.00 0.00 0.00 87 1011.9
20260905231251 86 295 0.9 0.9 0.00 0.00 0.00 86 1011.7
20260905230743 87 310 0.0 0.9 0.00 0.00 0.00 84 1011.4
20260905230240 87 312 0.0 0.0 0.00 0.00 0.00 83 1011.4
20260905225740 87 322 0.0 0.0 0.00 0.00 0.00 82 1011.2
20260905225235 88 316 0.0 0.0 0.00 0.00 0.00 82 1011.1
20260905224734 88 316 0.0 0.0 0.00 0.00 0.00 80 1011.0
20260905224230 89 316 0.0 0.0 0.00 0.00 0.00 79 1010.8
20260905223726 89 321 0.0 0.0 0.00 0.00 0.00 79 1010.8
20260905223223 89 316 0.0 0.0 0.00 0.00 0.00 77 1011.0
20260905222718 90 318 0.0 0.0 0.00 0.00 0.00 78 1010.9
20260905222217 90 320 0.0 0.0 0.00 0.00 0.00 77 1010.9
20260905221713 91 321 0.0 0.0 0.00 0.00 0.00 75 1010.7
20260905221210 92 328 0.0 0.0 0.00 0.00 0.00 75 1010.6
20260905220705 93 326 0.0 0.0 0.00 0.00 0.00 72 1010.6
20260905220201 93 324 0.0 0.9 0.00 0.00 0.00 72 1010.5
20260905215700 94 322 0.0 0.0 0.00 0.00 0.00 70 1010.5
20260905215156 96 325 0.0 0.0 0.00 0.00 0.00 68 1010.3
20260905214652 97 320 0.0 0.0 0.00 0.00 0.00 66 1010.3
20260905214147 97 321 0.0 0.0 0.00 0.00 0.00 62 1010.3
20260905213642 97 317 0.0 0.0 0.00 0.00 0.00 65 1010.3
20260905213137 97 318 0.0 0.0 0.00 0.00 0.00 62 1010.2
20260905212632 97 326 0.0 0.0 0.00 0.00 0.00 63 1010.6
20260905212127 96 319 0.0 0.0 0.00 0.00 0.00 64 1010.3
20260905211621 97 317 0.0 0.0 0.00 0.00 0.00 67 1010.3
20260905211117 97 321 0.0 0.0 0.00 0.00 0.00 60 1010.5
20260905210613 98 342 0.0 0.9 0.00 0.00 0.00 62 1010.2
20260905210108 98 315 0.0 0.0 0.00 0.00 0.00 58 1010.3
20260905205606 98 320 0.0 0.0 0.00 0.00 0.00 61 1010.5
20260905205101 97 325 0.0 0.9 0.00 0.00 0.00 61 1010.4
20260905204555 97 324 0.0 0.0 0.00 0.00 0.00 67 1010.3
20260905204051 97 325 0.0 0.0 0.00 0.00 0.00 64 1010.1
20260905203550 98 332 0.0 0.9 0.00 0.00 0.00 62 1010.1
20260905203046 98 319 0.0 0.0 0.00 0.00 0.00 62 1010.2
20260905202541 98 319 0.0 0.0 0.00 0.00 0.00 63 1010.1
20260905202037 97 321 0.0 0.0 0.00 0.00 0.00 62 1010.2
20260905201532 97 345 0.9 1.7 0.00 0.00 0.00 63 1010.4
20260905201031 97 334 0.0 0.0 0.00 0.00 0.00 64 1010.4
20260905200527 95 320 0.0 0.0 0.00 0.00 0.00 66 1010.4
20260905200026 95 323 0.0 0.0 0.00 0.00 0.00 67 1010.1
20260905195521 98 328 0.9 0.9 0.00 0.00 0.00 64 1010.5
20260905195016 98 334 0.9 0.9 0.00 0.00 0.00 60 1010.6
20260905194515 98 316 0.0 0.0 0.00 0.00 0.00 60 1010.7
20260905194009 98 342 2.6 2.6 0.00 0.00 0.00 61 1010.7
20260905193504 99 316 0.0 0.0 0.00 0.00 0.00 61 1010.6
20260905193000 98 320 0.0 0.0 0.00 0.00 0.00 64 1010.7
20260905192455 97 318 0.0 0.0 0.00 0.00 0.00 64 1010.9
20260905191951 97 318 1.7 1.7 0.00 0.00 0.00 63 1011.1
20260905191450 96 307 0.0 0.9 0.00 0.00 0.00 62 1011.1
20260905190949 98 325 1.7 1.7 0.00 0.00 0.00 62 1011.1
20260905190447 98 329 0.0 0.9 0.00 0.00 0.00 63 1011.2
20260905185946 97 338 2.6 2.6 0.00 0.00 0.00 62 1011.2
20260905185441 96 323 0.0 0.0 0.00 0.00 0.00 64 1011.4
20260905184939 97 326 0.0 0.9 0.00 0.00 0.00 64 1011.6
20260905184434 95 316 0.0 0.0 0.00 0.00 0.00 67 1011.7
20260905183933 96 289 1.7 1.7 0.00 0.00 0.00 65 1011.6
20260905183428 97 355 0.9 0.9 0.00 0.00 0.00 63 1011.8
20260905182923 97 320 0.0 0.0 0.00 0.00 0.00 64 1011.9
20260905182422 97 332 0.0 0.9 0.00 0.00 0.00 64 1012.0
20260905181918 97 356 1.7 1.7 0.00 0.00 0.00 66 1012.0
20260905181418 97 316 1.7 1.7 0.00 0.00 0.00 66 1012.2
20260905180917 97 23 1.7 1.7 0.00 0.00 0.00 65 1012.2
20260905180412 97 315 0.9 0.9 0.00 0.00 0.00 69 1012.1
20260905175907 96 325 0.0 0.0 0.00 0.00 0.00 65 1012.4
20260905175406 95 320 0.0 0.9 0.00 0.00 0.00 67 1012.3
20260905174901 95 321 0.0 0.9 0.00 0.00 0.00 69 1012.5
20260905174358 96 312 1.7 1.7 0.00 0.00 0.00 67 1012.6
20260905173853 95 317 0.0 0.9 0.00 0.00 0.00 69 1012.7
20260905173349 93 324 0.0 0.9 0.00 0.00 0.00 70 1012.8
20260905172844 94 0 0.9 1.7 0.00 0.00 0.00 69 1012.7
20260905172342 95 328 1.7 2.6 0.00 0.00 0.00 69 1012.6
20260905171838 94 308 0.0 0.0 0.00 0.00 0.00 71 1012.5
20260905171335 94 314 0.0 0.9 0.00 0.00 0.00 70 1012.7
20260905170831 95 349 0.0 0.9 0.00 0.00 0.00 70 1012.8
20260905170327 94 310 0.0 0.0 0.00 0.00 0.00 70 1013.1
20260905165825 95 319 0.9 1.7 0.00 0.00 0.00 71 1013.1
20260905165321 93 333 0.0 0.9 0.00 0.00 0.00 73 1013.4
20260905164821 93 306 0.9 0.9 0.00 0.00 0.00 71 1013.2
20260905164316 93 324 0.9 0.9 0.00 0.00 0.00 71 1013.3
20260905163811 92 308 0.9 0.9 0.00 0.00 0.00 73 1013.5
20260905163307 93 312 0.9 0.9 0.00 0.00 0.00 75 1013.8
20260905162803 92 319 0.9 0.9 0.00 0.00 0.00 75 1013.7
20260905162257 92 326 0.0 0.0 0.00 0.00 0.00 74 1013.8
20260905161751 91 118 2.6 2.6 0.00 0.00 0.00 76 1013.7
20260905161250 93 2 1.7 1.7 0.00 0.00 0.00 74 1013.9
20260905160748 92 299 0.0 0.0 0.00 0.00 0.00 76 1014.0
20260905160243 91 318 0.0 0.0 0.00 0.00 0.00 76 1013.9
20260905155738 91 315 0.0 0.0 0.00 0.00 0.00 77 1014.2
20260905155236 91 315 0.0 0.9 0.00 0.00 0.00 76 1014.5
20260905154731 90 317 0.0 0.9 0.00 0.00 0.00 77 1014.4
20260905154227 91 314 0.9 1.7 0.00 0.00 0.00 77 1014.3
20260905153717 89 327 0.0 0.9 0.00 0.00 0.00 80 1014.2
20260905153213 89 314 0.0 0.0 0.00 0.00 0.00 81 1014.7
20260905152707 90 271 3.5 4.3 0.00 0.00 0.00 78 1014.6
20260905152201 89 309 0.0 0.0 0.00 0.00 0.00 81 1014.5
20260905151701 89 261 0.9 1.7 0.00 0.00 0.00 81 1014.6
20260905151157 89 319 0.0 0.0 0.00 0.00 0.00 81 1014.6
20260905150652 88 315 0.0 0.0 0.00 0.00 0.00 83 1014.6
20260905150150 87 333 0.9 1.7 0.00 0.00 0.00 84 1014.6
20260905145649 87 333 0.0 1.7 0.00 0.00 0.00 85 1014.4
20260905145149 86 319 0.9 0.9 0.00 0.00 0.00 86 1014.8
20260905144643 87 284 1.7 1.7 0.00 0.00 0.00 85 1014.8
20260905144143 87 316 0.9 0.9 0.00 0.00 0.00 85 1014.6
20260905143638 87 322 0.9 1.7 0.00 0.00 0.00 85 1014.7
20260905143138 87 316 0.0 0.9 0.00 0.00 0.00 85 1014.7
20260905142636 87 312 0.9 0.9 0.00 0.00 0.00 86 1014.9
20260905142130 86 321 0.0 0.9 0.00 0.00 0.00 87 1014.7
20260905141625 85 308 0.0 0.9 0.00 0.00 0.00 89 1014.8
20260905141122 84 322 0.0 0.0 0.00 0.00 0.00 91 1014.8
20260905140616 84 317 0.0 0.0 0.00 0.00 0.00 94 1014.6
20260905140115 83 319 1.7 1.7 0.00 0.00 0.00 95 1014.5
20260905135611 81 311 0.0 0.9 0.00 0.00 0.00 97 1014.5
20260905135106 81 254 2.6 2.6 0.00 0.00 0.00 97 1014.6
20260905134601 81 308 0.0 0.0 0.00 0.00 0.00 98 1014.8
20260905134059 81 301 0.9 0.9 0.00 0.00 0.00 99 1014.7
20260905133555 80 317 0.0 0.9 0.00 0.00 0.00 99 1014.8
20260905133054 80 323 0.0 0.0 0.00 0.00 0.00 99 1014.7
20260905132548 79 313 0.0 0.0 0.00 0.00 0.00 99 1014.9
20260905132043 80 290 0.9 1.7 0.00 0.00 0.00 99 1014.8
20260905131539 79 317 0.0 0.0 0.00 0.00 0.00 99 1015.0
20260905131034 79 307 0.0 0.0 0.00 0.00 0.00 99 1014.8
20260905130533 78 311 0.0 0.0 0.00 0.00 0.00 99 1014.8
20260905130029 78 342 2.6 2.6 0.00 0.00 0.00 99 1015.0
20260905125528 78 305 0.0 0.0 0.00 0.00 0.00 99 1014.7
20260905125023 78 308 0.0 0.0 0.00 0.00 0.00 99 1014.9
20260905124520 78 319 0.0 0.0 0.00 0.00 0.00 99 1015.0
20260905124015 78 321 0.0 0.0 0.00 0.00 0.00 99 1014.8
20260905123510 78 318 0.0 0.0 0.00 0.00 0.00 99 1014.6
20260905123007 77 316 0.0 0.0 0.00 0.00 0.00 99 1014.9
20260905122502 77 316 0.0 0.0 0.00 0.00 0.00 99 1014.8
20260905121956 76 314 0.0 0.0 0.00 0.00 0.00 99 1014.9
20260905121452 76 316 0.0 0.0 0.00 0.00 0.00 99 1014.9
20260905120950 75 316 0.0 0.0 0.00 0.00 0.00 99 1014.6
20260905120445 75 316 0.0 0.0 0.00 0.00 0.00 99 1014.5
20260905115940 75 315 0.0 0.0 0.00 0.00 0.00 99 1014.7
20260905115439 75 315 0.0 0.0 0.00 0.00 0.00 99 1014.5
20260905114929 75 319 0.0 0.0 0.00 0.00 0.00 99 1014.5
20260905114429 74 319 0.0 0.0 0.00 0.00 0.00 99 1014.5
20260905113927 75 315 0.0 0.0 0.00 0.00 0.00 99 1014.5
20260905113423 75 316 0.0 0.0 0.00 0.00 0.00 99 1014.3
20260905112918 75 317 0.0 0.0 0.00 0.00 0.00 99 1014.4
20260905112414 75 317 0.0 0.0 0.00 0.00 0.00 99 1014.1
20260905111909 74 316 0.0 0.0 0.00 0.00 0.00 99 1014.5
20260905111408 74 316 0.0 0.0 0.00 0.00 0.00 99 1014.3
20260905110902 74 316 0.0 0.0 0.00 0.00 0.00 99 1014.3
20260905110356 74 316 0.0 0.0 0.00 0.00 0.00 99 1014.5
20260905105852 75 316 0.0 0.0 0.00 0.00 0.00 99 1014.3